Location: Bluff Heights
(33.7692°N, 118.1592°W)
Time: 12:49:08
(UTC+00:00)

S-56A Canister/Altair - Pass Details

Date: 28 July 2021
Orbit: 632 x 2500 km, 38.9° (Epoch: 25 September)

Event Time Altitude Azimuth Distance (km) Brightness Sun altitude
Rises 05:52:22 0° 293° (WNW) 6,023 12.9 -29.3°
Reaches altitude 10° 05:56:40 10° 290° (WNW) 4,853 12.2 -29.8°
Maximum altitude 06:09:25 58° 217° (SW) 2,007 9.3 -31.2°
Enters shadow 06:10:55 54° 187° (S) 1,993 9.2 -31.3°
